Tracking 18851 objects as of 25-Nov-2017
HD Live streaming from Space Station
objects crossing your sky now

FENGYUN 1C DEB

Track FENGYUN 1C DEB now!
10-day predictions


NORAD ID: 31157
Int'l Code: 1999-025BHK
Perigee: 759.3 km
Apogee: 909.0 km
Inclination: 98.7 °
Period: 101.4 minutes
Semi major axis: 7205 km
RCS: 0.0193 m2 (small)
Launch date: May 10, 1999
Source: People's Republic of China (PRC)
Launch site: Taiyaun Space Center, China (TSC)

Note: This is SATELLITE DEBRIS
aabbcc
Your satellite tracking list
Your tracking list is empty




NASA's NSSDC Master Catalog

Two Line Element Set (TLE):
1 31157U 99025BHK 17327.37272083 +.00000135 +00000-0 +80485-4 0  9992
2 31157 098.6594 020.5251 0103890 216.1763 204.0343 14.19500927552299
Source of the keplerian elements: AFSPC